| DS18B20 | SHTC3 | ||||||
|---|---|---|---|---|---|---|---|
| ID | Date d/m/Y & Time | data1 สูง | data2 ต่ำ | data3 นอก | temp pcb | hum pcb | Time |
| 6865 | 29/03/2026 10:47:41 | 29.9  | 28.9  | 30.9  | 29.2  | 68.4  | 10:47 |
| 6864 | 29/03/2026 10:42:59 | 29.9  | 28.8  | 31.2  | 29.4  | 68.5  | 10:42 |
| 6863 | 29/03/2026 10:38:17 | 29.8  | 28.8  | 31.5  | 29.1  | 68.5  | 10:38 |
| 6862 | 29/03/2026 10:33:35 | 29.7  | 28.7  | 31.7  | 29.1  | 68.5  | 10:33 |
| 6861 | 29/03/2026 10:28:53 | 29.6  | 28.6  | 31.6  | 29.1  | 68.7  | 10:28 |
| 6860 | 29/03/2026 10:24:11 | 29.5  | 28.5  | 31.6  | 29.0  | 68.8  | 10:24 |
| 6859 | 29/03/2026 10:19:29 | 29.4  | 28.4  | 31.5  | 28.7  | 68.9  | 10:19 |
| 6858 | 29/03/2026 10:14:47 | 29.3  | 28.3  | 31.4  | 28.6  | 69.1  | 10:14 |
| 6857 | 29/03/2026 10:10:06 | 29.1  | 28.2  | 31.5  | 28.6  | 69.3  | 10:10 |
| 6856 | 29/03/2026 10:05:23 | 28.9  | 28.1  | 31.6  | 28.4  | 69.4  | 10:05 |
| 6855 | 29/03/2026 10:00:42 | 28.8  | 28.1  | 31.0  | 28.5  | 69.7  | 10:00 |
| 6854 | 29/03/2026 09:56:01 | 28.6  | 28.0  | 30.7  | 28.2  | 69.9  | 09:56 |
| 6853 | 29/03/2026 09:51:19 | 28.5  | 27.9  | 30.4  | 28.4  | 70.1  | 09:51 |
| 6852 | 29/03/2026 09:46:37 | 28.4  | 27.9  | 30.2  | 28.1  | 70.1  | 09:46 |
| 6851 | 29/03/2026 09:41:56 | 28.4  | 27.9  | 29.9  | 28.0  | 70.2  | 09:41 |
| 6850 | 29/03/2026 09:37:14 | 28.3  | 27.8  | 29.5  | 28.0  | 70.2  | 09:37 |
| 6849 | 29/03/2026 09:32:32 | 28.2  | 27.8  | 29.4  | 28.1  | 70.3  | 09:32 |
| 6848 | 29/03/2026 09:27:51 | 28.2  | 27.8  | 29.5  | 27.9  | 70.4  | 09:27 |
| 6847 | 29/03/2026 09:23:08 | 28.2  | 27.7  | 29.3  | 28.0  | 70.6  | 09:23 |
| 6846 | 29/03/2026 09:18:27 | 28.1  | 27.7  | 29.1  | 27.8  | 70.5  | 09:18 |
| 6845 | 29/03/2026 09:13:45 | 28.1  | 27.6  | 29.1  | 27.8  | 70.5  | 09:13 |
| 6844 | 29/03/2026 09:09:03 | 28.1  | 27.6  | 29.1  | 27.6  | 70.7  | 09:09 |
| 6843 | 29/03/2026 09:04:22 | 28.0  | 27.6  | 29.0  | 27.5  | 70.8  | 09:04 |
| 6842 | 29/03/2026 08:59:40 | 27.9  | 27.5  | 28.9  | 27.7  | 70.8  | 08:59 |